Regional Weather Roundup
Issued by NWS Glasgow, MT

Home | Current Version | Previous Version | Text Only | Print | Product List | Glossary On
Versions: 1 2 3 4 5 6 7 8 9 10 11 12 13 14 15 16 17 18 19 20 21 22 23 24 25 26 27
471
ASUS45 KGGW 221815
RWRGGW
HOURLY WEATHER ROUNDUP FOR NORTHEAST MONTANA
NATIONAL WEATHER SERVICE GLASGOW MONTANA
1200 PM MDT FRI MAY 22 2015

NOTE: "FAIR" INDICATES FEW OR NO CLOUDS BELOW 12,000 FEET WITH NO
SIGNIFICANT WEATHER AND/OR OBSTRUCTIONS TO VISISBILITY.

NORTHEAST MONTANA


CITY           SKY/WX    TMP DP  RH WIND       PRES   REMARKS
GLASGOW        SUNNY     72  36  26 E18G31    30.01F
6HR MIN TEMP:  45; 6HR MAX TEMP:  72;

WOLF POINT     SUNNY     73  33  23 SE15G25   30.04F
JORDAN           N/A     68  43  40 SE21G33   29.98F
WINNETT          N/A     66  46  48 SE9         N/A
SIDNEY         SUNNY     73  32  21 SE16      30.07F
GLENDIVE       CLOUDY    70  41  35 SE16G23   30.05F
MALTA            N/A     70  42  36 SE12G21     N/A
OPHEIM           N/A     64  27  24 E16       29.88F

FORT PECK REPORTS


CITY           SKY/WX    TMP DP  RH WIND       PRES   REMARKS
FORT PECK        N/A     66  42  41 SE23        N/A
THE PINES        N/A     70  38  31 SE10G18     N/A

SOUTHEAST MONTANA


CITY           SKY/WX    TMP DP  RH WIND       PRES   REMARKS
BILLINGS       PTSUNNY   61  45  55 SE6       29.95F
MILES CITY     CLOUDY    68  44  42 SE22      29.99F
BAKER          PTSUNNY   65  40  39 SE20G32   30.07S
LIVINGSTON     MOSUNNY   60  45  57 VRB5      29.95F

CENTRAL MONTANA


CITY           SKY/WX    TMP DP  RH WIND       PRES   REMARKS
HAVRE          MOSUNNY   69  41  36 SE20      29.97S
LEWISTOWN      MOSUNNY   63  45  51 E10G22    29.97S
GREAT FALLS    SUNNY     66  41  40 NW6       29.95S
CUT BANK       SUNNY     64  35  34 VRB5G16   29.98F
HELENA         SUNNY     66  43  43 VRB3      29.93F
BUTTE          PTSUNNY   56  40  55 E7        29.96F
BOZEMAN        SUNNY     61  43  51 CALM      29.94F

WESTERN MONTANA


CITY           SKY/WX    TMP DP  RH WIND       PRES   REMARKS
MISSOULA       SUNNY     67  44  43 VRB3      29.91F
KALISPELL      NOT AVBL

NORTH DAKOTA


CITY           SKY/WX    TMP DP  RH WIND       PRES   REMARKS
WILLISTON      MOSUNNY   73  32  22 SE12G24   30.09F
DICKINSON      SUNNY     70  31  23 SE22G33   30.09F
MINOT          SUNNY     74  33  22 S9        30.12F
BISMARCK       SUNNY     73  37  27 SE9       30.15F

SOUTHERN SASKATCHEWAN


CITY           SKY/WX    TMP DP  RH WIND       PRES   REMARKS
REGINA         MOSUNNY   73  27  17 VRB2      30.09F
MOOSE JAW      PTSUNNY   73  34  23 S2        30.08F
ESTEVAN        MOSUNNY   73  30  20 SE8       30.11F
SWIFT CURRENT  SUNNY     70  30  23 SE22G31   30.06F




USA.gov is the U.S. government's official web portal to all federal, state and local government web resources and services.